Weather in Belyanka

Russia / Republic of Bashkortostan     56°02′42″N   59°14′13″E
temp.,
°C
wind,
m/s
gust,
m/s
humid.,
%
clouds,
%
prec.,
mm/h
press.,
hPa
HPBL,
m
27 september, mon
mon2723:00+2e61695100 4.5 1017679
02:00+2e61585100 3.1 1017734
05:00+1e61688100 4.4 1017820
08:00+1e71685100 0.3 1017825
11:00+2e71679100 0.3 1018909
14:00+3e71568100 0.0 10201168
17:00+4ene71460100 0.0 10201395
20:00+3ene7166446 0.0 10211298
28 september, tue
tue2823:00+2ene7147178 0.0 10221199
02:00+1ene71375100 0.0 10221081
05:00+1ene61269100 0.0 10231244
08:00+1ne51277100 0.0 10231351
11:00+4ene6116684 0.1 10231538
14:00+5ne6958100 0.1 10231691
17:00+5ne586065 0.1 10241459
20:00+1nne4107973 0.0 1025595
29 september, wed
wed2923:00−1nne289394 0.0 1026241
02:00−2n299586 0.0 1026239
05:00−2nne299437 0.0 1027278
08:00−2nne210905 0.0 1028313
11:00+5ne465987 0.0 10271248
14:00+5ne3554100 0.1 10271358
17:00+5nne355585 0.1 10281231
20:00+1nnw22735 0.0 102918
30 september, thu
thu3023:00−1nnw2277100 0.0 103018
02:00−1nnw1178100 0.0 103014
05:00−1wnw1181100 0.0 103010
08:000wnw137782 0.0 103086
11:00+5nw35595 0.0 1029758
14:00+7wnw45515 0.0 10271282
17:00+6wnw46566 0.0 10261264
20:00+1wnw288578 0.0 1027182
1 october, fri
fri123:00+3w4893100 0.1 1027594
02:00+3w4996100 0.4 1026609
05:00+3w41094100 0.6 1025537
08:00+4w4995100 0.1 1025470
11:00+4w3895100 0.1 1026509
14:00+5w2696100 0.0 1026423
17:00+5w1496100 0.0 1027234
20:00+5wsw0199100 0.3 102846